| time (UTC) | temp C | wind direction | speed KPH | gust KPH | rain 1hr cm | rain 24hr cm | rain mn cm | humidity % | barometer mb |
| 20260503203507 | 31 | 72 | 6.4 | 11.3 | 0.00 | 0.00 | 0.00 | 41 | 1009.2 |
| 20260503203007 | 31 | 136 | 6.4 | 11.3 | 0.00 | 0.00 | 0.00 | 42 | 1009.4 |
| 20260503202507 | 31 | 181 | 8.0 | 16.1 | 0.00 | 0.00 | 0.00 | 42 | 1009.5 |
| 20260503202008 | 31 | 225 | 8.0 | 11.3 | 0.00 | 0.00 | 0.00 | 43 | 1009.5 |
| 20260503201507 | 30 | 252 | 9.7 | 11.3 | 0.00 | 0.00 | 0.00 | 43 | 1009.5 |
| 20260503201008 | 30 | 199 | 8.0 | 14.5 | 0.00 | 0.00 | 0.00 | 44 | 1009.5 |
| 20260503200507 | 30 | 126 | 6.4 | 12.9 | 0.00 | 0.00 | 0.00 | 45 | 1009.8 |
| 20260503200006 | 30 | 207 | 8.0 | 11.3 | 0.00 | 0.00 | 0.00 | 46 | 1009.8 |
| 20260503195507 | 29 | 279 | 9.7 | 11.3 | 0.00 | 0.00 | 0.00 | 46 | 1009.8 |
| 20260503195007 | 29 | 99 | 9.7 | 12.9 | 0.00 | 0.00 | 0.00 | 45 | 1009.8 |
| 20260503194507 | 29 | 144 | 9.7 | 16.1 | 0.00 | 0.00 | 0.00 | 45 | 1010.1 |
| 20260503194006 | 29 | 162 | 6.4 | 12.9 | 0.00 | 0.00 | 0.00 | 45 | 1010.2 |
| 20260503193507 | 29 | 108 | 4.8 | 9.7 | 0.00 | 0.00 | 0.00 | 46 | 1010.2 |
| 20260503193008 | 28 | 135 | 4.8 | 12.9 | 0.00 | 0.00 | 0.00 | 48 | 1010.2 |
| 20260503192507 | 28 | 234 | 9.7 | 9.7 | 0.00 | 0.00 | 0.00 | 48 | 1010.4 |
| 20260503192007 | 28 | 171 | 8.0 | 12.9 | 0.00 | 0.00 | 0.00 | 48 | 1010.5 |
| 20260503191507 | 27 | 171 | 6.4 | 8.0 | 0.00 | 0.00 | 0.00 | 49 | 1010.5 |
| 20260503191007 | 27 | 346 | 3.2 | 6.4 | 0.00 | 0.00 | 0.00 | 52 | 1010.5 |
| 20260503190507 | 26 | 99 | 3.2 | 6.4 | 0.00 | 0.00 | 0.00 | 51 | 1010.7 |
| 20260503190006 | 26 | 18 | 8.0 | 12.9 | 0.00 | 0.00 | 0.00 | 52 | 1010.8 |
| 20260503185507 | 26 | 207 | 3.2 | 6.4 | 0.00 | 0.00 | 0.00 | 54 | 1010.8 |
| 20260503185007 | 25 | 90 | 4.8 | 9.7 | 0.00 | 0.00 | 0.00 | 55 | 1010.8 |
| 20260503184507 | 25 | 262 | 8.0 | 8.0 | 0.00 | 0.00 | 0.00 | 56 | 1011.0 |
| 20260503184007 | 25 | 306 | 4.8 | 9.7 | 0.00 | 0.00 | 0.00 | 58 | 1011.2 |
| 20260503183507 | 24 | 243 | 1.6 | 8.0 | 0.00 | 0.00 | 0.00 | 59 | 1011.2 |
| 20260503183007 | 24 | 225 | 1.6 | 8.0 | 0.00 | 0.00 | 0.00 | 59 | 1011.2 |
| 20260503182507 | 23 | 270 | 4.8 | 11.3 | 0.00 | 0.00 | 0.00 | 60 | 1011.2 |
| 20260503182007 | 23 | 308 | 0.0 | 1.6 | 0.00 | 0.00 | 0.00 | 61 | 1011.2 |
| 20260503181507 | 23 | 272 | 4.8 | 9.7 | 0.00 | 0.00 | 0.00 | 62 | 1011.5 |
| 20260503181008 | 23 | 279 | 6.4 | 9.7 | 0.00 | 0.00 | 0.00 | 62 | 1011.5 |
| 20260503180508 | 22 | 365 | 0.0 | 1.6 | 0.00 | 0.00 | 0.00 | 65 | 1011.5 |
| 20260503180007 | 22 | 227 | 6.4 | 9.7 | 0.00 | 0.00 | 0.00 | 67 | 1011.5 |
| 20260503175507 | 22 | 248 | 8.0 | 14.5 | 0.00 | 0.00 | 0.00 | 68 | 1011.5 |
| 20260503175007 | 22 | 54 | 4.8 | 8.0 | 0.00 | 0.00 | 0.00 | 74 | 1011.5 |
| 20260503174506 | 21 | 252 | 1.6 | 8.0 | 0.00 | 0.00 | 0.00 | 75 | 1011.6 |
| 20260503174007 | 21 | 225 | 1.6 | 6.4 | 0.00 | 0.00 | 0.00 | 77 | 1011.9 |
| 20260503173508 | 21 | 225 | 0.0 | 0.0 | 0.00 | 0.00 | 0.00 | 75 | 1011.9 |
| 20260503173007 | 21 | 280 | 9.7 | 11.3 | 0.00 | 0.00 | 0.00 | 76 | 1011.9 |
| 20260503172507 | 21 | 307 | 4.8 | 8.0 | 0.00 | 0.00 | 0.00 | 83 | 1011.9 |
| 20260503172007 | 20 | 234 | 3.2 | 11.3 | 0.00 | 0.00 | 0.00 | 84 | 1011.9 |
| 20260503171507 | 20 | 234 | 1.6 | 6.4 | 0.00 | 0.00 | 0.00 | 87 | 1011.9 |
| 20260503171006 | 20 | 306 | 4.8 | 8.0 | 0.00 | 0.00 | 0.00 | 89 | 1011.9 |
| 20260503170507 | 20 | 248 | 1.6 | 1.6 | 0.00 | 0.00 | 0.00 | 90 | 1011.9 |
| 20260503151007 | 13 | 0 | 0.0 | 0.0 | 0.00 | 0.00 | 0.00 | 99 | 1012.5 |
| 20260503150507 | 13 | 0 | 0.0 | 0.0 | 0.00 | 0.00 | 0.00 | 99 | 1012.5 |
| 20260503131007 | 10 | 0 | 0.0 | 0.0 | 0.00 | 0.00 | 0.00 | 99 | 1012.2 |
| 20260503130507 | 10 | 0 | 0.0 | 0.0 | 0.00 | 0.00 | 0.00 | 99 | 1012.2 |
| 20260503110507 | 12 | 0 | 0.0 | 0.0 | 0.00 | 0.00 | 0.00 | 99 | 1012.4 |
| 20260503090507 | 12 | 0 | 0.0 | 0.0 | 0.00 | 0.00 | 0.00 | 99 | 1012.5 |
| 20260503081508 | 13 | 0 | 0.0 | 0.0 | 0.00 | 0.00 | 0.00 | 99 | 1012.5 |
| 20260503081006 | 13 | 0 | 0.0 | 0.0 | 0.00 | 0.00 | 0.00 | 99 | 1012.5 |
| 20260503080507 | 13 | 0 | 0.0 | 0.0 | 0.00 | 0.00 | 0.00 | 99 | 1012.5 |
| 20260503072507 | 13 | 0 | 0.0 | 0.0 | 0.00 | 0.00 | 0.00 | 98 | 1012.5 |
| 20260503072007 | 13 | 0 | 0.0 | 0.0 | 0.00 | 0.00 | 0.00 | 98 | 1012.5 |
| 20260503071507 | 13 | 0 | 0.0 | 0.0 | 0.00 | 0.00 | 0.00 | 98 | 1012.5 |
| 20260503071007 | 13 | 0 | 0.0 | 0.0 | 0.00 | 0.00 | 0.00 | 98 | 1012.5 |
| 20260503070507 | 13 | 0 | 0.0 | 0.0 | 0.00 | 0.00 | 0.00 | 98 | 1012.5 |
| 20260503055007 | 15 | 0 | 0.0 | 0.0 | 0.00 | 0.00 | 0.00 | 96 | 1012.3 |
| 20260503054507 | 15 | 0 | 0.0 | 0.0 | 0.00 | 0.00 | 0.00 | 96 | 1012.2 |
| 20260503054007 | 16 | 0 | 0.0 | 0.0 | 0.00 | 0.00 | 0.00 | 96 | 1012.2 |
| 20260503053507 | 16 | 0 | 0.0 | 0.0 | 0.00 | 0.00 | 0.00 | 96 | 1012.2 |
| 20260503053008 | 16 | 0 | 0.0 | 0.0 | 0.00 | 0.00 | 0.00 | 95 | 1012.2 |
| 20260503052507 | 16 | 0 | 0.0 | 1.6 | 0.00 | 0.00 | 0.00 | 95 | 1012.2 |
| 20260503052007 | 16 | 0 | 0.0 | 0.0 | 0.00 | 0.00 | 0.00 | 95 | 1012.2 |
| 20260503051507 | 16 | 0 | 0.0 | 0.0 | 0.00 | 0.00 | 0.00 | 95 | 1012.3 |
| 20260503051006 | 16 | 0 | 0.0 | 0.0 | 0.00 | 0.00 | 0.00 | 95 | 1012.5 |
| 20260503050507 | 16 | 0 | 0.0 | 1.6 | 0.00 | 0.00 | 0.00 | 95 | 1012.5 |
| 20260503050007 | 16 | 108 | 1.6 | 4.8 | 0.00 | 0.00 | 0.00 | 95 | 1012.7 |
| 20260503045507 | 16 | 135 | 0.0 | 0.0 | 0.00 | 0.00 | 0.00 | 95 | 1012.8 |
| 20260503045007 | 16 | 135 | 0.0 | 0.0 | 0.00 | 0.00 | 0.00 | 95 | 1012.7 |
| 20260503044506 | 16 | 135 | 0.0 | 0.0 | 0.00 | 0.00 | 0.00 | 94 | 1012.9 |
| 20260503044007 | 16 | 99 | 1.6 | 4.8 | 0.00 | 0.00 | 0.00 | 94 | 1012.7 |
| 20260503043507 | 16 | 90 | 0.0 | 0.0 | 0.00 | 0.00 | 0.00 | 94 | 1012.5 |
| 20260503043007 | 17 | 90 | 0.0 | 0.0 | 0.00 | 0.00 | 0.00 | 94 | 1012.5 |
| 20260503042508 | 17 | 90 | 0.0 | 0.0 | 0.00 | 0.00 | 0.00 | 94 | 1012.5 |
| 20260503042007 | 17 | 90 | 0.0 | 0.0 | 0.00 | 0.00 | 0.00 | 94 | 1012.5 |
| 20260503041507 | 17 | 90 | 0.0 | 0.0 | 0.00 | 0.00 | 0.00 | 94 | 1012.5 |
| 20260503041007 | 17 | 90 | 0.0 | 1.6 | 0.00 | 0.00 | 0.00 | 94 | 1012.5 |
| 20260503040507 | 17 | 90 | 0.0 | 1.6 | 0.00 | 0.00 | 0.00 | 93 | 1012.5 |
| 20260503040007 | 17 | 90 | 0.0 | 0.0 | 0.00 | 0.00 | 0.00 | 93 | 1012.5 |
| 20260503035506 | 17 | 90 | 0.0 | 0.0 | 0.00 | 0.00 | 0.00 | 93 | 1012.5 |
| 20260503035007 | 17 | 90 | 0.0 | 0.0 | 0.00 | 0.00 | 0.00 | 93 | 1012.5 |
| 20260503034507 | 17 | 90 | 0.0 | 0.0 | 0.00 | 0.00 | 0.00 | 93 | 1012.4 |
| 20260503034007 | 18 | 90 | 1.6 | 6.4 | 0.00 | 0.00 | 0.00 | 93 | 1012.3 |
| 20260503033507 | 18 | 90 | 0.0 | 0.0 | 0.00 | 0.00 | 0.00 | 92 | 1012.2 |
| 20260503033007 | 18 | 90 | 0.0 | 0.0 | 0.00 | 0.00 | 0.00 | 92 | 1012.2 |
| 20260503032507 | 18 | 90 | 0.0 | 0.0 | 0.00 | 0.00 | 0.00 | 92 | 1012.2 |
| 20260503032007 | 18 | 90 | 0.0 | 0.0 | 0.00 | 0.00 | 0.00 | 92 | 1012.2 |
| 20260503031507 | 18 | 90 | 3.2 | 8.0 | 0.00 | 0.00 | 0.00 | 91 | 1012.2 |
| 20260503031007 | 18 | 180 | 4.8 | 11.3 | 0.00 | 0.00 | 0.00 | 91 | 1012.1 |
| 20260503030507 | 18 | 144 | 8.0 | 11.3 | 0.00 | 0.00 | 0.00 | 91 | 1011.9 |
| 20260503030007 | 18 | 153 | 9.7 | 14.5 | 0.00 | 0.00 | 0.00 | 90 | 1012.2 |
| 20260503025507 | 18 | 171 | 11.3 | 14.5 | 0.00 | 0.00 | 0.00 | 90 | 1012.2 |
| 20260503025007 | 18 | 144 | 12.9 | 14.5 | 0.00 | 0.00 | 0.00 | 89 | 1012.2 |
| 20260503024507 | 19 | 135 | 12.9 | 17.7 | 0.00 | 0.00 | 0.00 | 87 | 1012.2 |
| 20260503024007 | 19 | 180 | 11.3 | 14.5 | 0.00 | 0.00 | 0.00 | 86 | 1012.2 |
| 20260503023506 | 19 | 144 | 12.9 | 16.1 | 0.00 | 0.00 | 0.00 | 84 | 1012.2 |
| 20260503023007 | 20 | 135 | 12.9 | 14.5 | 0.00 | 0.00 | 0.00 | 81 | 1012.2 |
| 20260503022508 | 20 | 99 | 12.9 | 14.5 | 0.00 | 0.00 | 0.00 | 79 | 1012.2 |
| 20260503022007 | 21 | 153 | 16.1 | 17.7 | 0.00 | 0.00 | 0.00 | 75 | 1011.9 |
| 20260503021506 | 21 | 117 | 12.9 | 14.5 | 0.00 | 0.00 | 0.00 | 73 | 1011.9 |
| 20260503021007 | 21 | 135 | 11.3 | 14.5 | 0.00 | 0.00 | 0.00 | 71 | 1011.9 |
| 20260503020507 | 21 | 108 | 12.9 | 14.5 | 0.00 | 0.00 | 0.00 | 71 | 1011.6 |
| 20260503020007 | 21 | 144 | 12.9 | 16.1 | 0.00 | 0.00 | 0.00 | 68 | 1011.4 |
| 20260503015506 | 22 | 113 | 12.9 | 14.5 | 0.00 | 0.00 | 0.00 | 65 | 1011.2 |
| 20260503015007 | 22 | 146 | 11.3 | 12.9 | 0.00 | 0.00 | 0.00 | 63 | 1011.2 |
| 20260503014507 | 23 | 144 | 3.2 | 8.0 | 0.00 | 0.00 | 0.00 | 63 | 1010.9 |
| 20260503014007 | 23 | 180 | 0.0 | 1.6 | 0.00 | 0.00 | 0.00 | 64 | 1011.0 |
| 20260503013507 | 23 | 180 | 1.6 | 6.4 | 0.00 | 0.00 | 0.00 | 62 | 1011.0 |
| 20260503013007 | 23 | 99 | 1.6 | 4.8 | 0.00 | 0.00 | 0.00 | 59 | 1010.9 |
| 20260503012506 | 23 | 63 | 1.6 | 6.4 | 0.00 | 0.00 | 0.00 | 61 | 1011.0 |
| 20260503012007 | 23 | 108 | 3.2 | 8.0 | 0.00 | 0.00 | 0.00 | 60 | 1010.8 |
| 20260503011507 | 23 | 171 | 4.8 | 8.0 | 0.00 | 0.00 | 0.00 | 59 | 1010.8 |
| 20260503011007 | 23 | 158 | 3.2 | 6.4 | 0.00 | 0.00 | 0.00 | 59 | 1010.8 |
| 20260503010507 | 23 | 0 | 0.0 | 8.0 | 0.00 | 0.00 | 0.00 | 58 | 1010.8 |
| 20260503010007 | 23 | 72 | 9.7 | 11.3 | 0.00 | 0.00 | 0.00 | 56 | 1010.8 |
| 20260503005507 | 24 | 198 | 3.2 | 4.8 | 0.00 | 0.00 | 0.00 | 56 | 1010.8 |
| 20260503005008 | 24 | 181 | 4.8 | 9.7 | 0.00 | 0.00 | 0.00 | 56 | 1010.8 |
| 20260503004506 | 24 | 306 | 1.6 | 6.4 | 0.00 | 0.00 | 0.00 | 55 | 1010.9 |
| 20260503004007 | 25 | 307 | 8.0 | 14.5 | 0.00 | 0.00 | 0.00 | 54 | 1011.2 |
| 20260503003507 | 25 | 198 | 8.0 | 12.9 | 0.00 | 0.00 | 0.00 | 53 | 1011.0 |
| 20260503003006 | 25 | 306 | 3.2 | 9.7 | 0.00 | 0.00 | 0.00 | 52 | 1010.8 |
| 20260503002507 | 25 | 153 | 6.4 | 9.7 | 0.00 | 0.00 | 0.00 | 52 | 1010.8 |
| 20260503002007 | 25 | 153 | 8.0 | 11.3 | 0.00 | 0.00 | 0.00 | 53 | 1010.9 |
| 20260503001507 | 25 | 90 | 1.6 | 8.0 | 0.00 | 0.00 | 0.00 | 54 | 1011.1 |
| 20260503001007 | 25 | 135 | 8.0 | 12.9 | 0.00 | 0.00 | 0.00 | 53 | 1011.2 |
| 20260503000507 | 25 | 99 | 8.0 | 12.9 | 0.00 | 0.00 | 0.00 | 55 | 1011.2 |
| 20260503000007 | 24 | 117 | 6.4 | 11.3 | 0.00 | 0.00 | 0.00 | 56 | 1011.2 |
| 20260502235507 | 24 | 63 | 1.6 | 4.8 | 0.00 | 0.00 | 0.00 | 56 | 1011.2 |
| 20260502235006 | 24 | 253 | 9.7 | 12.9 | 0.00 | 0.00 | 0.00 | 55 | 1011.2 |
| 20260502234507 | 24 | 90 | 1.6 | 3.2 | 0.00 | 0.00 | 0.00 | 56 | 1011.3 |
| 20260502234007 | 24 | 189 | 8.0 | 11.3 | 0.00 | 0.00 | 0.00 | 55 | 1011.5 |
| 20260502233507 | 23 | 99 | 6.4 | 9.7 | 0.00 | 0.00 | 0.00 | 57 | 1011.5 |
| 20260502233007 | 23 | 171 | 9.7 | 11.3 | 0.00 | 0.00 | 0.00 | 55 | 1011.6 |
| 20260502232507 | 23 | 171 | 8.0 | 11.3 | 0.00 | 0.00 | 0.00 | 55 | 1011.7 |
| 20260502232008 | 23 | 253 | 9.7 | 11.3 | 0.00 | 0.00 | 0.00 | 55 | 1011.8 |
| 20260502231507 | 23 | 144 | 6.4 | 9.7 | 0.00 | 0.00 | 0.00 | 57 | 1011.9 |
| 20260502231007 | 23 | 171 | 8.0 | 11.3 | 0.00 | 0.00 | 0.00 | 56 | 1011.9 |
| 20260502230507 | 23 | 153 | 8.0 | 8.0 | 0.00 | 0.00 | 0.00 | 57 | 1011.9 |
| 20260502230007 | 23 | 225 | 8.0 | 11.3 | 0.00 | 0.00 | 0.00 | 56 | 1011.9 |
| 20260502225507 | 23 | 72 | 8.0 | 11.3 | 0.00 | 0.00 | 0.00 | 57 | 1012.2 |
| 20260502225006 | 23 | 254 | 6.4 | 11.3 | 0.00 | 0.00 | 0.00 | 58 | 1012.2 |
| 20260502224507 | 23 | 209 | 8.0 | 11.3 | 0.00 | 0.00 | 0.00 | 56 | 1012.2 |
| 20260502224007 | 23 | 270 | 4.8 | 8.0 | 0.00 | 0.00 | 0.00 | 55 | 1012.3 |
| 20260502223507 | 23 | 108 | 3.2 | 8.0 | 0.00 | 0.00 | 0.00 | 56 | 1012.5 |
| 20260502223007 | 23 | 279 | 3.2 | 8.0 | 0.00 | 0.00 | 0.00 | 55 | 1012.5 |
| 20260502222507 | 23 | 261 | 6.4 | 11.3 | 0.00 | 0.00 | 0.00 | 57 | 1012.5 |
| 20260502222007 | 23 | 99 | 8.0 | 11.3 | 0.00 | 0.00 | 0.00 | 57 | 1012.5 |
| 20260502221507 | 23 | 225 | 9.7 | 12.9 | 0.00 | 0.00 | 0.00 | 58 | 1012.8 |
| 20260502221007 | 22 | 162 | 4.8 | 8.0 | 0.00 | 0.00 | 0.00 | 61 | 1012.9 |
| 20260502220507 | 22 | 162 | 4.8 | 8.0 | 0.00 | 0.00 | 0.00 | 60 | 1012.9 |
| 20260502220007 | 22 | 108 | 4.8 | 11.3 | 0.00 | 0.00 | 0.00 | 61 | 1012.9 |
| 20260502215507 | 22 | 153 | 9.7 | 12.9 | 0.00 | 0.00 | 0.00 | 57 | 1013.0 |
| 20260502215007 | 22 | 198 | 6.4 | 12.9 | 0.00 | 0.00 | 0.00 | 58 | 1013.2 |
| 20260502214506 | 22 | 261 | 6.4 | 12.9 | 0.00 | 0.00 | 0.00 | 60 | 1013.2 |
| 20260502214008 | 22 | 271 | 9.7 | 11.3 | 0.00 | 0.00 | 0.00 | 60 | 1013.2 |
| 20260502213506 | 22 | 270 | 8.0 | 9.7 | 0.00 | 0.00 | 0.00 | 59 | 1013.2 |
| 20260502213007 | 22 | 180 | 8.0 | 11.3 | 0.00 | 0.00 | 0.00 | 59 | 1013.3 |
| 20260502212507 | 22 | 191 | 9.7 | 11.3 | 0.00 | 0.00 | 0.00 | 61 | 1013.6 |
| 20260502212007 | 21 | 207 | 8.0 | 11.3 | 0.00 | 0.00 | 0.00 | 61 | 1013.6 |
| 20260502211506 | 21 | 181 | 9.7 | 14.5 | 0.00 | 0.00 | 0.00 | 61 | 1013.6 |
| 20260502211007 | 21 | 271 | 9.7 | 16.1 | 0.00 | 0.00 | 0.00 | 62 | 1013.7 |
| 20260502210507 | 21 | 198 | 8.0 | 9.7 | 0.00 | 0.00 | 0.00 | 64 | 1013.8 |
| 20260502210007 | 21 | 117 | 4.8 | 9.7 | 0.00 | 0.00 | 0.00 | 64 | 1013.9 |
| 20260502205507 | 21 | 117 | 8.0 | 12.9 | 0.00 | 0.00 | 0.00 | 67 | 1014.1 |
| 20260502205007 | 20 | 153 | 9.7 | 11.3 | 0.00 | 0.00 | 0.00 | 67 | 1014.2 |
| 20260502204506 | 20 | 36 | 8.0 | 8.0 | 0.00 | 0.00 | 0.00 | 68 | 1014.2 |
| 20260502204007 | 20 | 126 | 8.0 | 11.3 | 0.00 | 0.00 | 0.00 | 67 | 1014.3 |